#timestamp,LO_Frequency,Hit,StdDev 
1624694415.1,286046998.3,N
1624694435.9,286047001.1,N
1624694455.7,286046998.7,N
1624694475.5,286046999.4,N
1624694495.4,286046997.1,N
1624694515.2,286046996.9,N
1624694535.1,286046997.4,N
1624694536.0,286046997.4,N
1624694555.8,286046997.2,N
1624694575.6,286046997.2,N
1624694595.5,286046996.6,N
1624694615.3,286046999.4,N
1624694635.1,286046999.0,N
1624694655.9,286046998.2,N
1624694675.7,286046998.1,N
1624694695.5,286047000.9,N
1624694715.4,286047001.0,N
1624694735.2,286047000.9,N
1624694755.1,286047000.6,N
1624694756.0,286047000.6,N
1624694775.8,286047000.3,N
1624694795.6,286047000.0,N
1624694815.5,286047001.2,N
1624694835.3,286046998.2,N
1624694855.1,286047000.2,N
1624694875.9,286047000.7,N
1624694895.7,286046998.5,N
1624694915.6,286047001.0,N
1624694935.4,286047001.0,N
1624694955.2,286047000.3,N
1624694975.1,286046999.8,N
1624694976.0,286046999.8,N
1624694995.8,286046999.8,N
1624695015.6,286046999.7,N
1624695035.5,286047002.8,N
1624695055.3,286047002.2,N
1624695075.2,286047002.0,N
1624695095.0,286047001.8,N
1624695095.9,286047001.8,N
1624695115.7,286047001.3,N
1624695135.6,286047001.6,N
1624695155.4,286047001.3,N
1624695175.3,286047001.7,N
1624695195.1,286047004.3,Y
1624695196.0,286047004.3,P
1624695215.8,286047004.3,N
1624695235.7,286047001.5,N
1624695255.5,286047001.7,N
1624695275.4,286047001.8,N
1624695295.2,286047002.6,N
1624695315.0,286047001.8,N
1624695315.9,286047001.8,N
1624695335.8,286047003.7,Y
1624695355.6,286047001.6,P
1624695375.4,286047002.0,P
1624695395.3,286047003.6,P
1624695415.1,286047004.1,Y
1624695435.9,286047001.1,P
1624695455.7,286047001.2,N
1624695475.5,286047000.7,N
1624695495.4,286046998.4,N
1624695515.2,286046998.3,N
1624695535.0,286046996.9,N
1624695536.0,286046996.9,N
1624695555.8,286046998.5,N
1624695575.6,286046999.7,N
1624695595.5,286047002.8,N
1624695615.3,286047000.3,N
1624695635.1,286047001.2,N
1624695655.9,286047001.0,N
1624695675.7,286047000.7,N
1624695695.6,286047000.6,N
1624695715.4,286047000.9,N
1624695735.2,286047000.8,N
1624695755.1,286046998.1,N
1624695756.0,286046998.1,N
1624695775.8,286046998.6,N
1624695795.7,286047001.1,N
1624695815.5,286047000.9,N
1624695835.3,286047000.8,N
1624695855.2,286047002.5,N
1624695875.9,286047000.0,N
1624695895.7,286047000.2,N
1624695915.6,286047000.6,N
1624695935.4,286047000.5,N
1624695955.3,286047000.5,N
1624695975.1,286047001.0,N
1624695976.0,286047001.0,N
1624695995.8,286047000.4,N
1624696015.7,286046998.2,N
1624696035.5,286047000.0,N
1624696055.3,286047000.1,N
1624696075.2,286046999.7,N
1624696095.0,286047002.3,N
1624696095.9,286047002.3,N
1624696115.8,286047002.4,N
1624696135.6,286047000.2,N
1624696155.4,286047000.5,N
1624696175.3,286047002.8,N
1624696195.1,286047000.3,N
1624696215.9,286047000.3,N
1624696235.7,286047000.1,N
1624696255.5,286047000.0,N
1624696275.4,286047000.2,N
1624696295.2,286047001.0,N
1624696315.0,286047001.5,N
1624696315.9,286047001.5,N
1624696335.8,286047001.8,N
1624696355.6,286047001.6,N
1624696375.5,286047002.2,N
1624696395.3,286047002.4,N
1624696415.1,286047002.7,N
1624696435.9,286047000.4,N
1624696455.7,286046999.9,N
1624696475.6,286047001.2,N
1624696495.4,286046999.1,N
1624696515.2,286046998.3,N
1624696535.1,286046998.7,N
1624696536.0,286046998.7,N
1624696555.8,286046998.6,N
1624696575.6,286047000.5,N
1624696595.5,286047000.1,N
1624696615.3,286047002.0,N
1624696635.2,286047002.1,N
1624696655.9,286047004.4,Y
1624696675.7,286047002.2,P
1624696695.6,286047001.6,N
1624696715.4,286047001.5,N
1624696735.2,286047002.6,Y
1624696755.1,286047000.5,P
1624696756.0,286047000.5,N
1624696775.8,286047000.0,N
1624696795.7,286047000.0,N
1624696815.5,286047002.7,Y
1624696835.3,286047001.0,P
1624696855.2,286047000.4,N
1624696875.0,286047000.4,N
1624696875.9,286047000.4,N
1624696895.8,286046998.5,Y
1624696915.6,286046999.0,P
1624696935.4,286046998.7,N
1624696955.3,286046998.9,N
1624696975.1,286046999.2,N
1624696995.8,286046997.2,Y
1624697015.7,286046997.7,P
1624697035.5,286046997.5,P
1624697055.4,286046996.9,P
1624697075.2,286046995.4,Y
1624697095.0,286046998.9,P
1624697095.9,286046998.9,N
1624697115.8,286046999.6,N
1624697135.6,286046997.0,Y
1624697155.5,286046998.4,P
1624697175.3,286046999.4,P
1624697195.1,286046998.8,N
1624697215.9,286046999.6,N
1624697235.7,286046999.5,N
1624697255.5,286046999.6,N
1624697275.4,286046998.5,Y
1624697295.2,286046999.9,P
1624697315.1,286047000.8,N
1624697316.0,286047000.8,N
1624697335.8,286046998.1,N
1624697355.6,286046998.5,N
1624697375.5,286047000.9,N
1624697395.3,286046998.5,N
1624697415.2,286046998.7,N
1624697435.9,286046998.6,N
1624697455.7,286046998.2,N
1624697475.6,286046998.6,N
1624697495.4,286046999.0,N
1624697515.3,286046999.6,N
1624697535.1,286046996.5,Y
1624697536.0,286046996.5,P
1624697555.8,286046996.7,N
1624697575.7,286046997.2,N
1624697595.5,286046997.9,N
1624697615.3,286046996.0,Y
1624697635.2,286046997.2,P
1624697655.0,286046997.0,P
1624697655.9,286046997.0,P
1624697675.8,286046996.7,Y
1624697695.6,286047001.2,P
1624697715.4,286047000.8,N
1624697735.3,286047001.2,N
1624697755.1,286047001.1,N
1624697775.9,286047000.5,N
1624697795.7,286047000.6,N
1624697815.5,286047000.9,N
1624697835.4,286047000.3,N
1624697855.2,286047000.8,N
1624697875.0,286047000.9,N
1624697875.9,286047000.9,N
1624697895.8,286047000.2,N
1624697915.6,286047002.5,N
1624697935.5,286047002.8,N
1624697955.3,286046999.8,N
1624697975.1,286047001.5,N
1624697995.9,286047002.4,N
